STARLINK-3824 (52360 NORAD) Tracking and Keplerian Element Data
This shows tracking and keplerian element data for the satellite.
Feedback or suggestion? Click here.
Element | Value |
Catalog | 52360 |
Name | STARLINK-3824 |
Epoch Orbit | 130 |
Epoch Day | 167.08334491 |
Epoch Year | 2022 |
RAAN | 202.6746 |
Inclination | 53.2144 |
Eccentricity | 0.0002993 |
Argument of Perigee | 13.2416 |
Mean Anonmoly | 288.5293 |
Mean Motion | 15.73210434 |
Decay Rate | 0.00080547 |
L1 | 1 52360U 22045AF 22167.08334491 .00080547 00000+0 57249-3 0 9992 |
L2 | 2 52360 53.2144 202.6746 0002993 13.2416 288.5293 15.73210434 1305 |
Live tracking and technical data element details for STARLINK-3824 (NORAD 52360). STARLINK-3824 can be tracked NOW for your location showing map with azimuth and elevation plus other details from your city location.
Track the satellite on the map from your city or location and see movement details for azimuth, elevation, latitude, longitude, range, height, and movement on the map or in text.
IsCatalogInMostPopularTable: catalog: 52360, numindb: 6
Update: records affected: 1
GetName: 52360 STARLINK-3824
Hit Count: updated at: Mon, 27 Jun 2022 05:42:18 GMT